Snowfall_Accumulation
0.0 0.0 0.0 0.0 0.0 0.0 0.0 0.0 0.0 0.0 0.0 0.0 0.0 0.0 0.0 0.0 0.0 0.0 0.0 nan nan nan nan nan nan nan nan nan nan nan nan nan nan nan nan nan nan nan
0.0 0.0 0.0 0.0 0.0 0.0 0.0 0.0 0.0 0.0 0.0 0.0 0.0 0.0 0.0 0.0 0.0 0.0 0.0 nan nan nan nan nan nan nan nan nan nan nan nan nan nan nan nan nan nan nan
0.0 0.0 0.0 0.0 0.0 0.0 0.0 0.0 0.0 0.0 0.0 0.0 0.0 0.0 0.0 0.0 0.0 0.0 0.0 0.0 0.0 nan nan nan nan nan nan nan nan nan nan nan nan nan nan nan nan nan
0.0 0.0 0.0 0.0 0.0 0.0 0.0 0.0 0.0 0.0 0.0 0.0 0.0 0.0 0.0 0.0 0.0 0.0 0.0 0.0 0.0 nan nan nan nan nan nan nan nan nan nan nan nan nan nan nan nan nan
0.0 0.0 0.0 0.0 0.0 0.0 0.0 0.0 0.0 0.0 0.0 0.0 0.0 0.0 0.0 0.0 0.0 0.0 0.0 0.0 0.0 nan nan nan nan nan nan nan nan nan nan nan nan nan nan nan nan nan
0.0 0.0 0.0 0.0 0.0 0.0 0.0 0.0 0.0 0.0 0.0 0.0 0.0 0.0 0.0 0.0 0.0 0.0 0.1 0.0 0.0 0.0 nan nan nan nan nan nan nan nan nan nan nan nan nan nan nan nan
0.0 0.0 0.0 nan nan nan 0.0 0.0 0.0 0.0 0.0 0.0 0.0 0.1 0.1 0.1 0.1 0.1 0.1 0.0 0.0 0.0 0.0 0.0 0.0 0.0 0.0 nan nan nan nan nan nan nan nan nan nan nan
0.0 0.0 0.0 0.0 0.0 nan nan nan nan 0.0 0.0 0.0 0.0 0.1 0.0 0.1 0.1 0.2 0.3 0.3 0.9 0.1 0.0 0.1 0.0 0.0 0.0 0.0 nan nan nan nan nan nan nan nan nan nan
0.0 0.0 0.0 0.0 nan 0.0 nan nan nan nan nan 0.0 0.0 0.0 0.0 0.0 0.0 0.1 0.0 0.3 0.3 0.1 0.1 0.5 0.1 0.2 0.0 0.0 nan nan nan nan nan nan nan nan nan nan
0.0 0.0 0.0 0.0 0.0 0.0 0.0 0.0 0.0 0.0 0.0 0.0 0.0 0.0 0.0 0.0 0.0 0.0 0.1 0.0 0.1 0.2 0.1 1.3 0.4 0.5 0.1 0.1 nan nan nan nan nan nan nan nan nan nan
0.0 0.0 0.0 0.0 nan nan 0.0 0.0 0.0 0.0 nan nan nan nan nan nan nan 0.2 1.2 1.8 1.3 0.9 0.6 1.6 1.1 1.6 1.1 2.0 0.4 nan nan nan nan nan nan nan nan nan
0.0 0.0 nan 0.0 nan nan 0.0 0.0 0.0 0.2 0.0 0.0 0.0 0.0 nan nan nan 0.0 0.5 2.6 2.4 3.3 1.2 6.7 2.3 3.0 6.2 2.3 1.4 0.8 0.8 nan nan nan nan nan nan 1.0
0.0 0.0 0.0 nan nan nan nan 0.0 0.0 0.0 0.4 0.3 0.3 0.6 0.3 0.2 0.6 0.4 0.1 0.9 3.0 3.1 0.7 1.8 1.9 1.7 2.0 4.4 2.0 2.2 1.4 2.3 1.6 1.5 nan nan nan 1.1
0.0 0.1 0.0 nan nan nan 0.1 nan nan 0.1 0.8 1.3 1.3 1.5 1.0 0.9 0.7 0.5 0.1 0.2 0.5 0.7 0.2 0.1 3.7 2.2 2.9 3.3 6.9 2.1 1.9 1.6 1.6 3.5 3.2 nan nan nan
0.1 0.1 nan nan nan 0.0 nan nan 0.0 0.5 0.9 1.7 1.7 1.7 0.9 0.6 0.1 0.3 0.0 0.0 0.0 0.0 0.0 0.1 0.9 0.3 1.3 2.7 5.5 4.3 3.9 2.9 1.9 3.2 3.4 4.2 6.0 4.3
0.0 0.2 0.0 0.1 0.0 0.1 0.2 0.3 0.4 0.4 0.5 0.8 0.8 0.5 0.4 0.5 0.6 0.3 0.5 0.4 0.5 0.8 0.0 0.1 0.1 0.1 1.6 1.6 1.8 4.3 2.5 4.2 3.6 4.5 3.9 4.6 3.9 4.8
0.1 0.2 0.3 0.3 0.3 0.3 0.3 0.4 0.4 0.4 0.6 0.6 0.8 0.8 0.7 0.5 0.4 0.3 0.3 0.4 0.9 1.3 1.8 1.1 0.1 0.2 0.8 0.3 4.6 3.9 4.4 3.6 3.4 3.7 2.4 5.0 6.8 8.0
0.2 0.3 0.6 0.7 0.7 0.5 0.6 0.7 0.6 0.5 0.5 0.5 0.6 0.6 0.8 0.9 0.8 0.6 0.4 0.7 1.7 1.5 1.7 1.7 1.3 1.6 1.9 2.8 1.6 5.1 3.8 3.1 4.0 2.3 2.8 3.5 5.0 5.0
0.5 0.5 0.9 0.9 0.7 0.5 0.5 0.5 0.9 0.6 0.0 0.5 0.8 0.9 0.9 0.8 1.2 1.0 0.9 0.9 1.6 1.5 1.8 1.4 1.6 1.8 3.9 10.4 5.3 nan 4.6 3.6 3.8 4.2 2.7 4.0 6.6 11.2
0.2 0.4 0.5 0.4 0.3 0.4 0.4 0.6 0.7 0.7 0.7 0.8 1.0 1.2 1.8 2.0 2.0 1.8 1.4 2.0 1.8 1.9 2.0 1.6 1.6 1.7 2.5 7.0 10.8 10.8 nan 2.6 1.9 4.4 6.1 3.6 3.0 nan
0.2 0.3 0.3 0.3 0.4 0.4 0.5 0.8 0.6 1.2 1.1 1.8 1.3 1.9 3.9 1.8 2.2 1.8 1.5 0.8 0.9 1.4 2.2 2.8 2.8 0.0 1.0 0.7 11.1 9.0 8.3 nan 0.6 0.9 1.6 2.5 3.0 3.3
0.3 0.3 0.3 0.3 0.4 0.5 0.7 1.4 1.6 1.7 1.3 1.3 2.6 4.4 3.9 1.8 2.8 2.6 2.4 2.2 1.6 1.3 1.8 2.2 1.4 1.0 0.9 0.7 3.7 6.4 5.1 5.1 nan nan nan nan 2.5 9.4
0.7 0.4 0.5 0.6 0.6 0.7 0.7 1.3 1.1 1.5 1.4 1.5 1.7 2.0 10.6 3.9 2.1 2.0 1.9 1.5 1.0 1.6 1.4 2.3 1.5 0.9 1.3 1.0 1.3 4.7 2.9 4.5 2.1 2.1 7.1 nan nan nan
Water_Equivalent
0.00 0.00 0.00 0.00 0.00 0.00 0.00 0.00 0.00 0.00 0.00 0.00 0.00 0.00 0.00 0.00 0.00 0.00 0.00 nan nan nan nan nan nan nan nan nan nan nan nan nan nan nan nan nan nan nan
0.00 0.00 0.00 0.00 0.00 0.00 0.00 0.00 0.00 0.00 0.00 0.00 0.00 0.00 0.00 0.00 0.00 0.00 0.00 nan nan nan nan nan nan nan nan nan nan nan nan nan nan nan nan nan nan nan
0.00 0.00 0.00 0.00 0.00 0.00 0.00 0.00 0.00 0.00 0.00 0.00 0.00 0.00 0.00 0.00 0.00 0.00 0.00 0.00 0.00 nan nan nan nan nan nan nan nan nan nan nan nan nan nan nan nan nan
0.00 0.00 0.00 0.00 0.00 0.00 0.00 0.00 0.00 0.00 0.00 0.00 0.00 0.00 0.00 0.00 0.00 0.00 0.00 0.00 0.00 nan nan nan nan nan nan nan nan nan nan nan nan nan nan nan nan nan
0.00 0.00 0.00 0.00 0.00 0.00 0.00 0.00 0.00 0.00 0.00 0.00 0.00 0.00 0.00 0.00 0.00 0.00 0.00 0.00 0.00 nan nan nan nan nan nan nan nan nan nan nan nan nan nan nan nan nan
0.00 0.00 0.00 0.00 0.00 0.00 0.00 0.00 0.00 0.00 0.00 0.00 0.00 0.00 0.00 0.00 0.00 0.00 0.03 0.00 0.00 0.00 nan nan nan nan nan nan nan nan nan nan nan nan nan nan nan nan
0.00 0.00 0.00 nan nan nan 0.00 0.00 0.00 0.00 0.00 0.00 0.00 0.03 0.03 0.05 0.04 0.04 0.04 0.02 0.01 0.00 0.00 0.00 0.00 0.00 0.00 nan nan nan nan nan nan nan nan nan nan nan
0.00 0.00 0.00 0.00 0.00 nan nan nan nan 0.00 0.00 0.00 0.01 0.03 0.00 0.03 0.03 0.06 0.11 0.13 0.28 0.02 0.01 0.05 0.00 0.00 0.00 0.00 nan nan nan nan nan nan nan nan nan nan
0.00 0.00 0.00 0.00 nan 0.00 nan nan nan nan nan 0.00 0.00 0.01 0.01 0.00 0.00 0.02 0.00 0.08 0.10 0.02 0.02 0.16 0.03 0.07 0.01 0.00 nan nan nan nan nan nan nan nan nan nan
0.00 0.00 0.00 0.00 0.00 0.00 0.00 0.00 0.00 0.00 0.00 0.00 0.00 0.00 0.00 0.00 0.00 0.00 0.01 0.01 0.05 0.07 0.03 0.39 0.15 0.22 0.06 0.03 nan nan nan nan nan nan nan nan nan nan
0.00 0.00 0.00 0.00 nan nan 0.00 0.00 0.00 0.00 nan nan nan nan nan nan nan 0.09 0.46 0.54 0.46 0.37 0.23 0.55 0.43 0.62 0.46 0.80 0.14 nan nan nan nan nan nan nan nan nan
0.00 0.00 nan 0.00 nan nan 0.00 0.00 0.00 0.07 0.01 0.01 0.01 0.00 nan nan nan 0.00 0.14 0.59 0.78 1.08 0.49 1.81 0.83 1.01 1.71 0.91 0.54 0.31 0.28 nan nan nan nan nan nan 0.30
0.01 0.02 0.00 nan nan nan nan 0.00 0.02 0.02 0.15 0.11 0.13 0.23 0.11 0.07 0.23 0.15 0.03 0.28 0.86 1.10 0.28 0.56 0.70 0.64 0.67 1.26 0.73 0.80 0.54 0.89 0.60 0.52 nan nan nan 0.33
0.02 0.03 0.02 nan nan nan 0.04 nan nan 0.04 0.33 0.51 0.51 0.61 0.42 0.36 0.29 0.20 0.02 0.08 0.18 0.20 0.06 0.02 1.18 0.65 0.78 0.94 1.58 0.64 0.64 0.55 0.57 1.08 1.06 nan nan nan
0.03 0.05 nan nan nan 0.00 nan nan 0.00 0.20 0.35 0.67 0.67 0.68 0.37 0.23 0.06 0.11 0.00 0.00 0.01 0.01 0.00 0.03 0.29 0.10 0.42 0.73 1.20 1.00 0.97 0.81 0.60 0.95 0.95 1.17 1.60 1.15
0.01 0.06 0.00 0.05 0.00 0.04 0.07 0.13 0.14 0.14 0.19 0.29 0.31 0.22 0.15 0.21 0.22 0.12 0.17 0.15 0.20 0.31 0.01 0.02 0.04 0.03 0.49 0.46 0.48 0.98 0.60 0.88 0.94 1.16 0.98 1.21 1.02 1.27
0.04 0.07 0.11 0.11 0.12 0.11 0.12 0.15 0.15 0.15 0.22 0.25 0.30 0.29 0.24 0.18 0.17 0.11 0.13 0.15 0.28 0.36 0.51 0.33 0.03 0.04 0.22 0.08 1.04 0.88 0.95 0.79 0.80 0.88 0.58 1.14 1.64 2.02
0.08 0.13 0.25 0.28 0.25 0.20 0.24 0.26 0.23 0.19 0.20 0.18 0.22 0.20 0.26 0.28 0.24 0.20 0.17 0.24 0.43 0.41 0.44 0.45 0.37 0.40 0.44 0.62 0.41 1.08 0.87 0.71 0.95 0.58 0.67 0.75 0.99 1.11
0.19 0.21 0.37 0.37 0.27 0.19 0.20 0.21 0.32 0.22 0.01 0.21 0.27 0.31 0.32 0.29 0.41 0.29 0.31 0.30 0.48 0.44 0.48 0.39 0.42 0.46 0.85 1.63 1.19 nan 0.99 0.83 0.91 0.96 0.62 0.86 1.28 2.09
0.08 0.14 0.19 0.15 0.12 0.14 0.15 0.20 0.23 0.26 0.27 0.28 0.36 0.46 0.66 0.59 0.60 0.49 0.40 0.53 0.48 0.49 0.52 0.44 0.43 0.41 0.55 1.41 2.28 2.24 nan 0.65 0.47 0.92 1.16 0.77 0.66 nan
0.09 0.11 0.11 0.11 0.12 0.13 0.20 0.31 0.21 0.43 0.39 0.66 0.47 0.70 1.56 0.52 0.63 0.51 0.44 0.23 0.23 0.37 0.53 0.64 0.61 0.00 0.25 0.18 2.56 1.86 1.81 nan 0.13 0.21 0.35 0.52 0.62 0.65
0.11 0.12 0.11 0.11 0.14 0.16 0.27 0.54 0.58 0.61 0.43 0.44 0.97 1.74 1.52 0.59 0.75 0.69 0.66 0.60 0.43 0.32 0.41 0.50 0.35 0.27 0.22 0.17 0.71 1.43 1.05 1.18 nan nan nan nan 0.57 1.54
0.25 0.14 0.18 0.21 0.21 0.25 0.23 0.41 0.34 0.47 0.46 0.50 0.54 0.63 4.23 1.07 0.61 0.56 0.54 0.42 0.27 0.39 0.34 0.53 0.37 0.21 0.31 0.24 0.31 0.96 0.56 1.00 0.46 0.48 1.34 nan nan nan
SL_Ratio
nan nan nan nan nan nan nan nan nan 0.0 nan nan nan nan nan nan nan nan nan nan nan nan nan nan nan nan nan nan nan nan nan nan nan nan nan nan nan nan
nan nan nan nan nan nan nan nan nan nan nan nan nan nan nan nan nan nan nan nan nan nan nan nan nan nan nan nan nan nan nan nan nan nan nan nan nan nan
nan nan nan nan nan nan nan nan nan nan nan nan nan nan nan nan nan nan nan nan nan nan nan nan nan nan nan nan nan nan nan nan nan nan nan nan nan nan
nan nan nan nan nan nan nan nan nan nan nan nan nan nan nan nan nan nan nan nan nan nan nan nan nan nan nan nan nan nan nan nan nan nan nan nan nan nan
nan nan nan nan nan nan nan nan nan nan nan nan nan nan nan nan nan nan nan nan nan nan nan nan nan nan nan nan nan nan nan nan nan nan nan nan nan nan
nan nan nan nan nan nan nan nan nan nan nan nan nan nan nan nan nan 5.0 2.7 nan nan nan nan nan nan nan nan nan nan nan nan nan nan nan nan nan nan nan
nan nan nan nan nan nan nan nan nan nan nan nan 2.5 2.4 2.5 2.5 2.5 2.5 2.5 2.5 2.5 nan nan nan nan nan nan nan nan nan nan nan nan nan nan nan nan nan
nan nan nan nan nan nan nan nan nan nan nan nan 3.8 2.8 nan 2.5 2.5 2.9 3.0 2.7 3.4 2.4 2.6 2.5 nan nan nan nan nan nan nan nan nan nan nan nan nan nan
nan nan nan nan nan nan nan nan nan nan nan nan nan 2.7 4.4 nan 5.0 4.2 4.3 3.6 3.2 2.5 2.6 2.8 2.5 2.5 2.5 nan nan nan nan nan nan nan nan nan nan nan
nan nan nan nan nan nan nan nan nan nan nan nan nan nan nan nan nan 4.2 4.3 4.2 2.5 2.5 2.5 3.3 2.5 2.5 2.5 2.5 nan nan nan nan nan nan nan nan nan nan
nan nan nan nan nan nan nan nan nan 0.0 nan nan nan nan nan nan nan 2.5 2.5 3.4 2.7 2.5 2.5 2.9 2.5 2.6 2.5 2.5 2.6 nan nan nan nan nan nan nan nan nan
nan nan nan nan nan nan nan nan 3.6 2.5 2.7 2.5 2.5 2.9 nan nan nan nan 3.2 4.4 3.1 3.1 2.5 3.7 2.8 3.0 3.6 2.5 2.5 2.5 2.8 nan nan nan nan nan nan 3.3
2.7 2.5 1.7 nan nan nan nan nan 2.4 2.6 2.5 2.5 2.5 2.5 2.5 2.5 2.5 2.5 2.5 3.2 3.5 2.8 2.5 3.3 2.7 2.6 3.0 3.5 2.7 2.7 2.6 2.6 2.7 2.9 nan nan nan 3.5
2.4 2.5 2.5 nan nan nan 2.5 nan nan 2.5 2.5 2.5 2.5 2.5 2.5 2.5 2.5 2.5 2.5 2.5 2.5 3.2 2.5 3.3 3.1 3.4 3.8 3.5 4.3 3.2 3.1 3.0 2.8 3.3 3.0 nan nan nan
2.5 2.6 nan nan nan nan nan nan nan 2.5 2.5 2.5 2.5 2.5 2.5 2.5 2.5 2.5 2.1 nan 2.1 2.5 1.7 2.8 2.9 3.1 3.2 3.7 4.6 4.3 4.0 3.6 3.2 3.3 3.6 3.6 3.8 3.7
2.3 2.5 nan 2.5 nan 2.5 2.5 2.5 2.5 2.5 2.5 2.7 2.6 2.5 2.5 2.5 2.5 2.5 2.7 2.5 2.7 2.7 2.5 3.3 3.9 4.1 3.3 3.5 3.8 4.4 4.2 4.8 3.8 3.9 4.0 3.8 3.8 3.8
2.5 2.5 2.5 2.5 2.5 2.5 2.5 2.5 2.5 2.5 2.5 2.5 2.7 2.8 2.8 2.6 2.7 2.5 2.5 2.5 3.4 3.7 3.4 3.2 3.9 4.0 3.5 4.0 4.4 4.4 4.6 4.6 4.2 4.2 4.2 4.4 4.2 3.9
2.5 2.5 2.6 2.6 2.7 2.6 2.7 2.6 2.5 2.5 2.5 2.8 2.7 2.8 3.1 3.1 3.3 2.9 2.5 2.9 3.9 3.7 3.9 3.8 3.6 3.9 4.3 4.5 3.9 4.7 4.4 4.4 4.2 4.0 4.2 4.6 5.1 4.5
2.5 2.5 2.5 2.5 2.5 2.5 2.5 2.5 2.8 2.5 3.1 2.6 2.8 2.8 2.9 2.9 3.0 3.3 3.0 2.9 3.4 3.5 3.8 3.6 3.8 3.9 4.6 6.4 4.5 nan 4.6 4.3 4.2 4.4 4.3 4.7 5.2 5.3
2.5 2.6 2.7 2.5 2.7 3.0 2.8 3.0 2.9 2.6 2.6 2.7 2.8 2.6 2.7 3.3 3.4 3.6 3.5 3.7 3.9 3.8 3.9 3.6 3.8 4.0 4.6 5.0 4.7 4.8 nan 3.9 4.0 4.8 5.2 4.7 4.5 nan
2.6 2.7 2.5 2.8 2.9 2.9 2.5 2.6 2.7 2.8 2.8 2.7 2.8 2.7 2.5 3.5 3.5 3.5 3.5 3.5 3.8 3.9 4.2 4.4 4.5 nan 4.1 3.7 4.4 4.8 4.6 nan 4.4 4.4 4.6 4.7 4.9 5.1
2.6 2.8 2.8 2.9 3.0 2.9 2.8 2.6 2.8 2.8 3.1 2.9 2.7 2.5 2.6 3.1 3.7 3.7 3.6 3.6 3.8 3.9 4.4 4.4 4.0 3.9 4.0 3.9 5.2 4.4 4.9 4.4 nan nan nan nan 4.4 6.1
2.6 2.8 2.8 2.9 2.8 2.8 3.2 3.1 3.3 3.1 3.1 3.1 3.1 3.1 2.5 3.6 3.4 3.5 3.5 3.6 3.8 4.0 4.1 4.4 4.2 4.0 4.3 4.1 4.2 4.9 5.2 4.5 4.5 4.4 5.3 nan nan nan